Grand Junction, CO

12:06 AM MDT on September 18, 2019 (GMT -0600)
Walker

Weather History for KGJT - April, 2019

Change the Weather History Date:

Friday, April 12, 2019

  Actual Average Record
Temperature  
Mean Temperature 41 °F 50 °F  
Max Temperature 56 °F 64 °F 82 °F (1934)
Min Temperature 25 °F 37 °F 16 °F (1997)
Degree Days  
Heating Degree Days 24 15  
Month to date heating degree days 156 192  
Since 1 July heating degree days 5264 5224  
Cooling Degree Days 0 0  
Month to date cooling degree days 0 0  
Year to date cooling degree days 0 0  
Moisture  
Dew Point 23 °F    
Average Humidity 55    
Maximum Humidity 92    
Minimum Humidity 18    
Precipitation  
Precipitation 0.00 in 0.03 in 0.36 in (1960)
Month to date precipitation 0.05 0.39  
Year to date precipitation 3.78 2.43  
Snow  
Snow 0.00 in 0.00 in 3.10 in (1991)
Month to date snowfall T 0.6  
Since 1 July snowfall 17.4 18.7  
Snow Depth 0.00 in    
Sea Level Pressure  
Sea Level Pressure 29.78 in    
Wind  
Wind Speed 5 mph (ESE)    
Max Wind Speed 13 mph    
Max Gust Speed 17 mph    
Visibility 10 miles    
Events      
T = Trace of Precipitation, MM = Missing Value Source: NWS Daily Summary

Daily Weather History Graph

Daily Weather History Graph

Search for Another Location

Airport or City:

Astronomy

Apr. 12, 2019 Rise Set
Actual Time 6:42 AM MDT 7:48 PM MDT
Civil Twilight 6:14 AM MDT 8:15 PM MDT
Nautical Twilight 5:41 AM MDT 8:48 PM MDT
Astronomical Twilight 5:07 AM MDT 9:23 PM MDT
Moon 12:12 PM MDT (4/12) 2:19 AM MDT (4/12)
Length of Visible Light 14h 01m
Length of Day
13h 06m
Waxing Crescent, 50% of the Moon is Illuminated
Apr 12
Waxing Crescent
Apr 12
First Quarter
Apr 19
Full
Apr 26
Last Quarter
May 4
New

Hourly Weather History & Observations

Time (MDT) Temp. Windchill Dew Point Humidity Pressure Visibility Wind Dir Wind Speed Gust Speed Precip Events Conditions
12:53 AM 34.0 °F 31.0 °F 27.0 °F 75% 29.77 in 10.0 mi ENE 3.5 mph - N/A   Mostly Cloudy
1:53 AM 30.9 °F 26.2 °F 26.1 °F 82% 29.78 in 10.0 mi East 4.6 mph - N/A   Clear
2:53 AM 30.0 °F 26.5 °F 26.1 °F 85% 29.77 in 10.0 mi NE 3.5 mph - N/A   Clear
3:53 AM 27.0 °F 21.6 °F 24.1 °F 89% 29.80 in 10.0 mi East 4.6 mph - N/A   Clear
4:53 AM 28.9 °F 21.9 °F 25.0 °F 85% 29.79 in 10.0 mi ENE 6.9 mph - N/A   Clear
5:53 AM 30.0 °F 26.5 °F 25.0 °F 82% 29.80 in 10.0 mi ESE 3.5 mph - N/A   Clear
6:53 AM 25.0 °F 20.7 °F 21.9 °F 88% 29.83 in 10.0 mi East 3.5 mph - N/A   Clear
7:53 AM 33.1 °F 30.0 °F 28.0 °F 82% 29.84 in 10.0 mi ESE 3.5 mph - N/A   Clear
8:53 AM 39.0 °F 32.8 °F 28.0 °F 65% 29.83 in 10.0 mi ESE 9.2 mph - N/A   Clear
9:53 AM 42.1 °F 37.1 °F 28.9 °F 60% 29.83 in 10.0 mi SE 8.1 mph - N/A   Clear
10:53 AM 45.0 °F 40.6 °F 25.0 °F 46% 29.81 in 10.0 mi SE 8.1 mph - N/A   Clear
11:53 AM 48.0 °F - 21.0 °F 34% 29.79 in 10.0 mi SSE 6.9 mph - N/A   Clear
12:53 PM 50.0 °F - 21.0 °F 32% 29.78 in 10.0 mi Variable 5.8 mph - N/A   Partly Cloudy
1:53 PM 52.0 °F - 21.0 °F 30% 29.75 in 10.0 mi Variable 5.8 mph - N/A   Clear
2:53 PM 54.0 °F - 18.0 °F 24% 29.73 in 10.0 mi SW 6.9 mph - N/A   Clear
3:53 PM 55.0 °F - 12.9 °F 19% 29.72 in 10.0 mi WSW 8.1 mph - N/A   Clear
4:53 PM 54.0 °F - 12.9 °F 20% 29.71 in 10.0 mi ENE 5.8 mph - N/A   Partly Cloudy
5:53 PM 54.0 °F - 19.9 °F 26% 29.72 in 10.0 mi WSW 8.1 mph 17.3 mph N/A   Partly Cloudy
6:53 PM 52.0 °F - 18.0 °F 26% 29.75 in 10.0 mi WSW 4.6 mph - N/A   Clear
7:53 PM 48.9 °F - 19.9 °F 32% 29.74 in 10.0 mi WNW 4.6 mph - N/A   Clear
8:53 PM 44.1 °F 40.8 °F 21.0 °F 40% 29.75 in 10.0 mi NNE 5.8 mph - N/A   Scattered Clouds
9:53 PM 43.0 °F 40.3 °F 26.1 °F 51% 29.78 in 10.0 mi West 4.6 mph - N/A   Clear
10:53 PM 39.9 °F 37.8 °F 25.0 °F 55% 29.79 in 10.0 mi WNW 3.5 mph - N/A   Partly Cloudy
11:53 PM 42.1 °F 38.4 °F 27.0 °F 55% 29.80 in 10.0 mi West 5.8 mph - N/A   Mostly Cloudy